Total_Precipitation_Accumulation
0.16 0.17 0.19 0.20 0.20 0.21 0.20 0.20 0.25 0.26 0.28 0.31 0.38 0.39 0.49 0.50 0.37 0.19 0.09 0.03 0.02 0.07 0.19 0.01 0.02 0.05 0.08 0.11 0.21 0.28 0.60 0.18 0.01 0.00 0.00 0.00 0.00 0.00 0.00 0.00 0.00 0.00 0.00 0.02 0.03
0.15 0.16 0.21 0.23 0.23 0.20 0.20 0.27 0.24 0.18 0.22 0.22 0.24 0.32 0.41 0.42 0.26 0.18 0.01 0.04 0.09 0.22 0.19 0.07 0.03 0.08 0.14 0.11 0.28 0.46 0.45 0.19 0.00 0.00 0.02 0.02 0.00 0.00 0.00 0.00 0.01 0.02 0.01 0.02 0.04
0.17 0.18 0.21 0.24 0.29 0.25 0.24 0.29 0.27 0.23 0.26 0.25 0.31 0.30 0.40 0.35 0.21 0.04 0.02 0.05 0.25 0.46 0.28 0.17 0.08 0.16 0.20 0.13 0.16 0.24 0.18 0.00 0.00 0.03 0.08 0.03 0.00 0.00 0.00 0.00 0.00 0.03 0.05 0.08 0.14
0.22 0.25 0.26 0.26 0.27 0.29 0.31 0.25 0.29 0.31 0.33 0.25 0.31 0.55 0.64 0.33 0.20 0.07 0.03 0.06 0.27 0.71 0.37 0.25 0.16 0.15 0.13 0.07 0.03 0.08 0.05 0.02 0.03 0.17 0.16 0.04 0.00 0.00 0.00 0.00 0.00 0.06 0.12 0.16 0.18
0.32 0.33 0.29 0.27 0.29 0.34 0.31 0.31 0.35 0.30 0.28 0.24 0.35 0.59 0.64 0.41 0.09 0.13 0.10 0.14 0.46 0.87 0.39 0.29 0.23 0.08 0.05 0.03 0.05 0.03 0.05 0.05 0.11 0.26 0.10 0.08 0.09 0.00 0.00 0.00 0.00 0.02 0.07 0.16 0.23
0.33 0.31 0.28 0.31 0.31 0.35 0.30 0.37 0.30 0.30 0.36 0.47 0.51 0.68 0.46 0.18 0.02 0.03 0.11 0.20 0.38 0.73 0.47 0.41 0.29 0.04 0.06 0.04 0.07 0.03 0.04 0.14 0.28 0.14 0.06 0.16 0.14 0.04 0.00 0.00 0.00 0.03 0.03 0.11 0.19
0.38 0.34 0.32 0.34 0.37 0.35 0.32 0.37 0.28 0.22 0.32 0.38 0.62 0.53 0.40 0.10 0.04 0.08 0.11 0.22 0.35 0.59 0.38 0.41 0.56 0.25 0.13 0.14 0.09 0.06 0.11 0.21 0.21 0.22 0.18 0.08 0.19 0.22 0.00 0.00 0.00 0.02 0.03 0.02 0.03
0.41 0.38 0.38 0.43 0.41 0.37 0.29 0.28 0.23 0.32 0.33 0.41 0.65 0.75 0.26 0.02 0.04 0.02 0.10 0.25 0.43 0.70 0.62 0.75 0.99 0.35 0.21 0.16 0.22 0.30 0.20 0.14 0.07 0.10 0.24 0.21 0.18 0.06 0.01 0.00 0.00 0.00 0.00 0.01 0.00
0.48 0.41 0.41 0.49 0.47 0.32 0.25 0.31 0.48 0.55 0.54 0.66 0.71 0.61 0.19 0.06 0.07 0.02 0.11 0.35 0.41 0.66 0.88 1.33 1.91 0.64 0.28 0.30 0.33 0.34 0.10 0.02 0.04 0.04 0.05 0.12 0.05 0.04 0.07 0.00 0.00 0.00 0.00 0.00 0.01
0.46 0.45 0.47 0.44 0.43 0.38 0.47 0.52 0.72 0.82 0.79 1.00 1.03 0.70 0.17 0.06 0.12 0.08 0.12 0.43 0.54 0.88 1.63 1.95 2.78 1.13 0.38 0.33 0.21 0.06 0.03 0.01 0.02 0.03 0.02 0.02 0.01 0.01 0.08 0.03 0.00 0.00 0.00 0.00 0.01
0.48 0.51 0.46 0.50 0.63 0.62 0.90 1.50 1.31 1.25 0.97 0.70 0.45 0.24 0.23 0.19 0.32 0.31 0.22 0.56 1.01 1.54 1.91 1.57 2.62 1.00 0.21 0.05 0.03 0.02 0.06 0.03 0.01 0.00 0.01 0.00 0.01 0.01 0.03 0.07 0.01 0.00 0.00 0.00 0.00
0.46 0.40 0.48 0.63 0.67 0.94 1.34 1.19 0.68 0.63 0.72 0.30 0.21 0.12 0.11 0.29 0.55 0.58 0.32 0.99 1.32 1.62 1.90 1.88 1.39 0.48 0.22 0.11 0.07 0.07 0.07 0.04 0.02 0.02 0.04 0.00 0.02 0.01 0.02 0.04 0.03 0.00 0.00 0.00 0.00
0.45 0.42 0.55 0.71 0.83 1.02 1.08 0.70 0.37 0.72 1.23 0.68 0.46 0.33 0.26 0.43 0.59 0.64 0.48 1.04 1.29 1.42 1.64 1.32 0.83 0.45 0.37 0.23 0.15 0.09 0.07 0.04 0.03 0.05 0.04 0.03 0.02 0.02 0.01 0.00 0.02 0.00 0.00 0.00 0.00
0.44 0.52 0.71 0.95 1.11 1.16 1.19 0.92 0.86 1.36 2.01 1.05 0.81 0.77 0.67 0.83 0.91 0.67 0.60 1.20 1.39 1.22 1.28 1.17 0.82 0.72 0.51 0.42 0.14 0.11 0.04 0.04 0.07 0.16 0.05 0.08 0.04 0.00 0.00 0.00 0.00 0.00 0.00 0.00 0.00
0.52 0.69 0.87 1.39 1.50 1.23 1.40 1.23 1.51 1.92 1.88 0.73 0.91 1.02 0.87 1.01 0.76 0.99 0.64 1.23 0.89 1.16 1.48 1.19 0.82 0.90 0.71 0.53 0.17 0.12 0.03 0.04 0.08 0.22 0.34 0.07 0.08 0.01 0.00 0.00 0.00 0.00 0.00 0.00 0.00
0.75 0.84 1.05 1.24 1.25 0.84 1.06 1.80 2.20 2.22 1.63 1.56 1.28 1.40 0.98 0.65 0.73 0.71 0.82 1.10 0.85 1.41 1.24 0.68 0.82 0.85 0.67 0.59 0.29 0.14 0.14 0.14 0.22 0.35 0.55 0.34 0.10 0.02 0.00 0.00 0.00 0.00 0.00 0.00 0.00
0.96 0.93 1.37 1.04 1.19 0.86 1.22 2.14 2.26 1.23 0.98 1.37 1.70 1.33 0.60 0.51 0.52 0.89 1.21 0.87 1.35 1.76 1.99 1.58 1.27 0.99 0.70 0.92 0.69 0.43 0.60 0.85 0.80 0.83 0.37 0.07 0.24 0.11 0.00 0.00 0.00 0.00 0.00 0.00 0.00
0.84 1.12 1.23 0.92 0.86 1.49 1.42 1.62 1.41 0.74 0.98 0.73 0.89 0.68 0.75 0.55 0.79 0.74 0.94 0.36 0.62 0.98 1.29 1.44 1.48 1.10 0.93 0.88 0.96 0.64 0.55 0.80 0.40 0.30 0.13 0.05 0.07 0.03 0.00 0.00 0.00 0.00 0.00 0.00 0.00
1.21 1.31 1.62 1.16 1.07 1.63 1.76 1.34 1.21 1.05 1.00 0.88 0.63 0.54 0.70 0.33 0.51 0.54 0.44 0.19 0.33 0.53 0.68 0.66 0.83 0.60 0.57 0.55 0.69 0.78 0.75 0.49 0.51 0.22 0.32 0.10 0.02 0.00 0.00 0.00 0.00 0.00 0.00 0.00 0.00
1.75 1.70 1.78 1.04 1.12 1.76 1.93 1.17 1.14 1.17 0.65 0.30 0.38 0.19 0.13 0.15 0.27 0.21 0.14 0.06 0.19 0.16 0.22 0.35 0.73 0.72 0.63 0.71 0.82 0.58 0.36 0.54 1.10 0.49 0.20 0.11 0.06 0.00 0.00 0.00 0.00 0.00 0.00 0.00 0.00
1.75 2.03 1.62 1.28 1.62 2.10 1.56 0.94 0.85 0.64 0.39 0.21 0.06 0.06 0.03 0.03 0.19 0.05 0.04 0.05 0.11 0.07 0.14 0.45 0.66 0.79 0.98 0.99 0.77 0.64 0.64 0.51 0.57 0.29 0.14 0.06 0.08 0.01 0.00 0.00 0.02 0.01 0.01 0.01 0.01
1.62 1.96 1.32 1.98 2.33 1.52 0.81 0.90 0.92 0.53 0.20 0.18 0.07 0.02 0.01 0.01 0.12 0.05 0.03 0.03 0.03 0.03 0.16 0.38 0.56 0.76 0.62 0.21 0.17 0.27 0.27 0.20 0.77 0.39 0.27 0.17 0.06 0.01 0.01 0.00 0.02 0.03 0.03 0.02 0.01
1.64 1.54 2.21 1.39 1.22 0.75 0.69 0.85 0.59 0.19 0.19 0.21 0.05 0.01 0.00 0.01 0.02 0.01 0.02 0.00 0.00 0.01 0.15 0.29 0.74 0.78 0.76 0.51 0.49 0.65 0.35 0.28 0.62 1.13 0.62 0.31 0.07 0.00 0.01 0.01 0.01 0.01 0.03 0.01 0.00
1.27 1.67 3.09 2.02 0.54 0.57 1.00 1.13 0.79 0.25 0.19 0.23 0.08 0.04 0.04 0.02 0.00 0.00 0.04 0.00 0.00 0.01 0.18 0.66 0.60 0.75 0.74 0.74 0.79 0.55 0.31 0.49 1.00 1.36 0.39 0.17 0.03 0.01 0.01 0.03 0.02 0.03 0.04 0.06 0.02
0.75 0.62 0.82 0.85 0.42 0.23 0.67 0.83 0.82 0.66 0.43 0.27 0.13 0.04 0.05 0.02 0.02 0.00 0.01 0.00 0.00 0.01 0.21 0.73 0.94 1.21 0.74 0.38 0.93 0.53 0.29 0.37 0.87 0.61 0.58 0.18 0.07 0.02 0.01 0.04 0.10 0.09 0.11 0.06 0.03
0.50 0.31 0.16 0.06 0.04 0.05 0.37 0.84 0.90 0.77 0.60 0.31 0.14 0.05 0.05 0.03 0.01 0.00 0.00 0.00 0.00 0.01 0.11 0.47 0.79 0.96 0.56 0.17 0.33 0.34 0.15 0.20 0.19 0.31 0.41 0.17 0.22 0.05 0.02 0.12 0.29 0.17 0.22 0.11 0.06
0.54 0.27 0.13 0.11 0.06 0.04 0.09 0.40 0.64 0.63 0.49 0.27 0.18 0.16 0.04 0.02 0.01 0.01 0.00 0.00 0.00 0.01 0.10 0.28 0.45 0.78 0.63 0.37 0.24 0.42 0.26 0.15 0.14 0.20 0.33 0.31 0.19 0.07 0.07 0.29 0.31 0.31 0.30 0.09 0.03